Regional Weather Roundup
Issued by NWS

Home | Current Version | Previous Version | Text Only | Print | Product List | Glossary Off
Versions: 1 2 3 4 5 6 7 8 9 10 11 12 13 14 15 16 17 18 19 20 21 22 23 24 25 26 27 28 29 30 31 32 33 34 35 36 37 38 39 40 41 42 43 44 45 46 47 48 49 50

000
ASUS43 KLMK 191102
RWRKY
KENTUCKY REGIONAL WEATHER ROUNDUP
NATIONAL WEATHER SERVICE LOUISVILLE KY
700 AM EDT SAT AUG 19 2017

NOTE "FAIR" INDICATES FEW OR NO CLOUDS BELOW 12,000 FEET
WITH NO SIGNIFICANT WEATHER AND/OR OBSTRUCTIONS TO VISIBILITY.

KYZ001>023-026-027-061>063-070>075-191200-
WESTERN AND SOUTH CENTRAL KENTUCKY

CITY           SKY/WX    TMP DP  RH WIND       PRES   REMARKS
PADUCAH        CLEAR     70  64  81 SW3       29.95R
HENDERSON      PTCLDY    67  66  97 S3        29.95R
OWENSBORO      MOCLDY    68  66  93 S6        29.96R
HOPKINSVILLE   MOCLDY    69  67  93 SW3       29.96S
BOWLING GREEN  PTCLDY    70  68  93 E3        29.97S
GLASGOW        CLOUDY    67  67 100 CALM      29.98F
$$

KYZ024-025-028>034-038-045-046-053-191200-
NORTH CENTRAL KENTUCKY

CITY           SKY/WX    TMP DP  RH WIND       PRES   REMARKS
LOUISVILLE/SDF CLOUDY    72  67  84 S3        29.96R
LOUISVILLE/LOU CLOUDY    71  68  90 S5        29.96S
FORT KNOX      CLOUDY    68  65  92 CALM      29.95S
$$

KYZ035>037-039>044-047>052-055>060-089>105-191200-
NORTHEAST KENTUCKY

CITY           SKY/WX    TMP DP  RH WIND       PRES   REMARKS
LEXINGTON      CLOUDY    67  63  87 S6        30.00R
COVINGTON      CLOUDY    67  67 100 S3        29.95S
FRANKFORT      CLOUDY    68  64  87 CALM      29.98R
$$

KYZ054-064>069-076>088-106>120-191200-
SOUTHEAST KENTUCKY

CITY           SKY/WX    TMP DP  RH WIND       PRES   REMARKS
JACKSON        CLEAR     65  63  93 CALM      30.02R
LONDON         CLEAR     63  62  97 CALM      30.02S FOG
SOMERSET       NOT AVBL
MIDDLESBORO    FOG       63  63 100 CALM      30.05R VSB 1/2
MONTICELLO     SUNNY     63  63 100 W10       30.03R
$$




USA.gov is the U.S. government's official web portal to all federal, state and local government web resources and services.